Location: Fiennes
(50.8274°N, 1.8253°E)
Time: 23:34:29
(UTC+00:00)

COSMOS 2428 - Pass Details

Date: 15 May 2026
Orbit: 844 x 855 km, 70.9° (Epoch: 11 June)

Event Time Altitude Azimuth Distance (km) Brightness Sun altitude
Rises 21:04:35 0° 331° (NNW) 3,428 7.8 -11.4°
Reaches altitude 10° 21:07:28 10° 344° (NNW) 2,487 6.3 -11.6°
Maximum altitude 21:12:14 27° 41° (NE) 1,598 4.3 -12.1°
Drops below altitude 10° 21:16:58 10° 98° (E) 2,471 4.7 -12.6°
Enters shadow 21:17:34 - 101° (E) 2,655 4.9 -12.6°
